Vorticity
nan nan nan nan nan nan nan nan nan nan nan nan nan nan nan nan nan nan nan nan nan nan nan nan nan nan nan nan nan nan nan nan nan nan nan nan nan nan nan nan nan nan nan
nan 9 8 8 8 7 7 8 8 8 9 11 8 8 10 11 10 8 6 7 8 7 8 8 8 9 9 9 7 7 9 10 10 8 8 7 7 7 8 10 9 9 nan
nan 9 9 9 9 8 8 8 8 11 9 8 10 10 9 12 12 9 8 8 8 7 9 8 8 8 7 7 9 9 9 9 9 9 9 9 6 9 10 9 10 10 nan
nan 11 11 9 9 9 9 9 9 9 10 12 11 11 8 10 12 11 9 9 9 9 8 8 9 10 12 11 10 9 8 8 8 9 9 9 10 8 8 9 9 7 nan
nan 12 14 15 12 10 9 9 9 10 10 9 11 12 15 13 11 17 17 12 11 10 10 10 10 7 13 18 15 13 10 7 9 10 9 9 9 7 9 10 10 7 nan
nan 11 10 13 14 12 11 11 11 10 13 12 10 9 13 12 9 12 13 15 15 13 11 12 10 9 9 13 15 14 17 16 12 8 9 9 10 9 7 8 13 12 nan
nan 10 9 8 10 9 11 12 15 14 10 11 11 11 10 6 8 11 11 10 9 10 14 15 9 9 12 11 12 9 10 12 15 16 13 11 9 9 9 12 10 12 nan
nan 10 9 8 10 9 10 13 14 12 11 10 9 10 7 6 8 9 12 14 14 14 14 14 11 7 11 13 7 7 8 11 14 18 15 16 20 17 11 10 12 9 nan
nan 11 10 10 7 10 10 10 12 13 11 9 8 9 12 3 4 16 16 12 12 13 14 13 17 10 12 13 10 9 8 7 9 13 14 10 10 16 26 21 11 7 nan
nan 14 12 9 10 10 9 10 11 12 12 11 10 10 10 6 8 15 20 15 8 8 9 5 10 15 18 16 10 8 8 9 7 3 3 5 6 6 11 19 18 14 nan
nan 11 12 14 14 9 11 12 12 12 12 10 8 8 7 11 10 14 25 21 12 9 8 8 5 15 19 21 18 14 12 10 8 8 7 6 6 6 7 9 15 19 nan
nan 10 10 13 13 12 11 11 11 10 9 10 8 8 8 6 10 14 12 19 21 15 11 12 11 9 10 16 19 17 15 12 9 8 8 9 9 8 8 8 10 13 nan
nan 8 11 11 12 13 12 10 11 11 10 9 8 8 8 8 4 6 11 8 16 17 14 12 11 9 9 7 8 10 14 15 11 11 10 9 9 10 11 9 8 5 nan
nan 10 11 10 10 11 13 11 11 10 8 10 11 9 8 9 10 10 8 8 8 9 9 7 8 5 7 7 5 8 11 12 12 11 10 9 9 9 10 10 10 9 nan
nan 9 10 10 9 9 8 12 14 11 11 13 12 11 11 11 10 10 12 14 10 8 7 6 6 4 5 8 8 8 10 10 10 10 10 10 11 9 9 10 11 12 nan
nan 9 10 11 10 10 8 5 8 11 14 15 16 13 6 13 18 12 13 13 11 9 8 9 9 11 10 9 10 8 8 10 10 11 10 10 9 10 9 11 12 11 nan
nan 11 11 11 11 10 9 10 8 7 7 6 10 12 19 19 13 9 7 6 12 14 9 11 10 11 10 10 9 10 11 10 12 11 10 11 12 12 10 8 9 10 nan
nan 10 10 10 11 11 11 11 11 11 9 5 8 12 13 13 20 18 4 3 6 11 13 10 10 10 10 10 11 13 10 8 10 11 10 10 9 10 11 10 10 11 nan
nan 9 8 9 10 11 10 11 12 11 10 10 9 9 8 8 10 6 10 15 13 10 10 10 11 10 9 10 10 10 10 10 11 10 10 10 10 10 11 11 11 9 nan
nan 9 10 10 8 8 9 10 10 10 9 9 10 10 9 7 8 8 11 10 10 10 10 11 11 11 11 11 10 10 11 10 9 8 10 10 9 10 9 9 8 9 nan
nan 8 9 10 9 10 11 9 8 8 8 9 10 7 10 13 10 9 9 10 10 11 12 10 10 9 10 11 10 9 9 10 10 11 9 8 10 10 8 8 9 10 nan
nan 10 10 9 10 12 11 10 10 9 11 11 11 10 8 9 10 10 11 11 11 11 11 10 11 11 11 10 10 10 10 10 10 9 10 9 10 9 9 8 9 10 nan
nan 10 10 10 10 11 11 10 11 11 12 13 11 10 9 10 10 10 10 11 11 11 11 11 10 10 10 11 11 10 10 10 11 10 10 10 10 10 8 9 9 10 nan
nan 10 11 10 10 10 10 10 10 9 12 14 12 10 10 11 11 10 10 11 10 10 10 10 11 10 8 8 10 10 12 13 11 12 9 9 10 10 9 10 9 10 nan
nan 12 12 12 11 11 10 11 12 11 12 13 11 14 13 12 12 12 12 10 10 10 10 9 11 11 10 8 7 9 13 11 7 9 11 10 10 8 8 9 9 10 nan
nan nan nan nan nan nan nan nan nan nan nan nan nan nan nan nan nan nan nan nan nan nan nan nan nan nan nan nan nan nan nan nan nan nan nan nan nan nan nan nan nan nan nan
CAPE
744 846 946 1040 1194 1395 1441 1628 1671 1768 1872 1703 1873 2050 2057 1740 1694 2221 2354 2141 2221 2117 2209 2522 2277 2247 1825 2309 2374 1915 1959 1984 1509 1718 1816 1924 2164 2109 2012 1783 1600 2027 1514
798 856 947 1054 1222 1228 1504 1544 1713 1770 1946 1948 1890 1886 1958 1838 1855 2013 1787 1343 1867 1604 1605 1891 1925 1435 2177 2165 1740 2164 1926 1970 1676 1893 2348 1841 1851 2154 2093 1983 1220 1481 1793
996 952 957 993 1119 1416 1553 1570 1654 1588 1785 1749 1706 1798 1979 1840 1689 1950 1720 1511 1447 1559 1585 1636 1479 1628 2098 1898 1896 1611 1459 1625 1627 1360 1103 1508 1596 1699 1696 1693 1939 1797 1269
1131 1024 1142 1300 1330 1221 1560 1767 1682 1607 1767 1725 1774 1734 1554 1668 1670 1630 1729 1958 1579 1283 1390 1173 1525 1269 1453 1881 1787 1898 1691 1502 1192 960 972 1196 1323 1946 1884 1415 1073 1357 849
643 1234 950 1443 1462 1477 1638 1764 1683 1709 1447 1635 1729 1341 1357 1519 1197 1315 1738 1821 1710 1365 1385 1372 1638 753 148 746 2343 2132 1998 1787 1089 1553 1211 988 1013 1251 1650 1309 1057 1207 100
752 408 221 290 1037 1403 1487 1794 1857 1880 1748 1335 1308 1388 1430 448 0 0 0 630 1452 1933 1798 1433 1343 163 421 0 7 85 665 1928 1816 2027 809 652 1215 1318 746 359 962 1012 882
455 223 62 79 112 529 743 1098 1499 1823 1535 1429 981 877 512 7 0 0 0 1 86 995 1379 1323 643 204 120 653 0 0 0 0 0 1695 1582 1312 1267 1222 276 371 1232 168 0
382 181 221 40 25 38 66 210 661 538 475 629 350 218 163 0 0 0 0 16 1 153 458 709 211 2 14 5 0 0 0 0 0 0 10 13 30 63 24 638 970 399 0
105 87 16 70 1 3 3 101 82 115 24 77 35 16 7 4 0 0 0 121 44 8 3 1 0 0 0 0 0 0 0 0 0 0 0 0 0 0 14 257 173 976 506
3 4 1 1 2 4 1 0 5 5 3 4 4 3 1 4 0 0 1 63 20 3 2 0 0 0 0 0 0 0 0 0 0 0 0 0 0 0 0 0 0 4 0
2 1 5 2 2 1 2 2 3 3 5 6 5 3 4 0 2 0 1 5 2 1 1 1 1 0 0 0 0 0 0 0 0 0 0 0 0 0 0 0 0 0 0
1 2 1 3 5 5 6 6 4 3 5 3 2 4 6 4 0 0 0 0 0 0 0 3 1 0 0 0 0 0 0 0 0 0 0 0 0 0 0 0 0 0 0
0 1 1 0 0 5 8 5 4 7 6 10 3 2 6 9 6 0 0 0 0 3 1 0 0 0 0 0 0 0 0 0 0 0 0 0 0 0 0 0 0 0 0
0 0 0 0 0 0 0 2 3 2 1 1 0 0 0 0 0 0 7 2 0 0 0 0 0 0 0 0 0 0 0 0 0 0 0 0 0 0 0 0 0 0 0
0 0 0 0 0 0 0 0 0 0 0 0 0 0 0 0 0 0 0 4 5 1 5 1 0 0 0 0 0 0 0 0 0 0 0 0 0 0 0 0 0 0 0
0 0 0 0 0 0 0 0 0 0 0 0 0 0 0 0 0 0 0 0 0 0 0 1 2 1 1 1 1 1 1 0 0 0 0 0 0 0 0 0 0 0 0
0 0 0 0 0 0 0 0 0 0 0 0 0 0 0 0 0 0 0 0 0 0 2 0 0 0 0 0 0 0 0 0 0 0 0 0 0 0 0 0 0 0 0
0 0 0 0 0 0 0 0 0 0 0 0 0 0 0 0 0 0 0 0 0 0 0 0 0 0 0 0 0 0 0 0 0 0 0 0 0 0 0 0 0 0 0
0 0 0 0 0 0 0 0 0 0 0 0 0 0 0 0 0 0 0 0 0 0 0 0 0 0 0 0 0 0 0 0 0 0 0 0 0 0 0 0 0 0 0
0 0 0 0 0 0 0 0 0 0 0 0 0 0 0 0 0 0 0 0 0 0 0 0 0 0 0 0 0 0 0 0 0 0 0 0 0 0 0 0 0 0 0
0 0 0 0 0 0 0 0 0 0 0 0 0 0 0 0 0 0 0 0 0 0 0 0 0 0 0 0 0 0 0 0 0 0 0 0 0 0 0 0 0 0 0
0 0 0 0 0 0 0 0 0 0 0 0 0 0 0 0 0 0 0 0 0 0 0 0 0 0 0 0 0 0 0 0 0 0 0 0 0 0 0 0 0 0 0
0 0 0 0 0 0 0 0 0 0 0 0 0 0 0 0 0 0 0 0 0 0 0 0 0 0 0 0 0 0 0 0 0 0 0 0 0 0 0 0 0 0 0
0 0 0 0 0 0 0 0 0 0 0 0 0 0 0 0 0 0 0 0 0 0 0 0 0 0 0 0 0 0 0 0 0 0 0 0 0 0 0 0 0 0 0
51 12 0 0 0 0 0 0 0 0 0 0 0 0 0 0 0 0 0 0 0 0 0 0 0 0 0 0 0 0 0 0 0 0 0 0 0 0 0 0 0 0 0
319 217 63 3 0 0 0 0 0 0 0 0 0 0 0 0 0 0 0 0 0 0 0 0 0 0 0 0 0 0 0 0 0 0 0 0 0 0 0 0 0 0 0